Date String (YYYY-MM-DD hh:mm:ss) UTC,Instrument flags,absolute air pressure of the measurement (hPa),sample flow rate (lpm),inlet stack bypass flow (lpm),air temperature of the measurement (°C),ambient temperature measured by the external sensor (°C),aerosol sample conditioner tube jacket temperature (°C),OPC LED temperature (°C),internal box temperature (°C),relative humidity of the measurement (%),span deviation,mass concentration of particles derived from Lorenz-Mie calculation of OPC scattering (μg/m³),mass concentration of particles derived from Lorenz-Mie calculation of OPC scattering (μg/m³),mass concentration of particles derived from Lorenz-Mie calculation of OPC scattering (μg/m³)
DateTimeUTC,F1_M11,P_M11,Q1_M11,Q2_M11,T1_M11,T2_M11,T3_M11,T4_M11,T5_M11,U1_M11,ZSPAN_M11,X0_M11,X2_M11,X1_M11
2023-07-27 06:00:00,SystemResetWarning,0834.8,5.00,000.00,030.1,026.8,000.0,038.6,030.9,29.4,0000.0,0007.95,0004.10,0003.28
2023-07-27 06:01:00,SystemResetWarning,0834.7,5.00,000.00,030.1,027.1,000.0,038.5,031.0,29.8,0000.0,0007.97,0004.13,0003.29
2023-07-27 06:02:00,SystemResetWarning,0834.7,5.01,000.00,030.1,027.4,000.0,038.5,031.0,30.9,0000.0,0008.47,0004.11,0003.30
2023-07-27 06:03:00,SystemResetWarning,0835.0,4.99,000.00,030.1,027.6,000.0,038.5,031.1,29.0,0000.0,0008.46,0004.06,0003.29
2023-07-27 06:04:00,SystemResetWarning,0835.2,4.99,000.00,030.1,027.8,000.0,038.5,031.1,28.6,0000.0,0008.44,0004.05,0003.28
2023-07-27 06:05:00,SystemResetWarning,0835.2,4.99,000.00,030.1,027.9,000.0,038.5,031.2,28.4,0000.0,0008.36,0004.04,0003.27
2023-07-27 06:06:00,SystemResetWarning,0834.9,5.00,000.00,030.1,028.0,000.0,038.5,031.2,31.6,0000.0,0008.40,0004.01,0003.26
2023-07-27 06:07:00,SystemResetWarning,0834.9,5.00,000.00,030.1,028.1,000.0,038.5,031.2,33.8,0000.0,0008.39,0003.98,0003.25
2023-07-27 06:08:00,SystemResetWarning,0834.9,5.01,000.00,030.1,028.2,000.0,038.5,031.3,33.6,0000.0,0008.31,0003.95,0003.24
2023-07-27 06:09:00,SystemResetWarning,0834.9,5.00,000.00,030.1,028.3,000.0,038.5,031.3,33.2,0000.0,0008.32,0003.95,0003.23
2023-07-27 06:10:00,SystemResetWarning,0835.0,5.00,000.00,030.1,028.3,000.0,038.5,031.3,33.1,0000.0,0008.26,0003.93,0003.23
2023-07-27 06:11:00,SystemResetWarning,0835.3,4.98,000.00,030.1,026.8,000.0,038.4,031.2,32.7,0000.0,0008.28,0003.93,0003.23
2023-07-27 06:12:00,SystemResetWarning,0835.0,5.02,000.00,030.0,025.6,000.0,038.3,030.9,31.6,0000.0,0008.28,0003.93,0003.22
2023-07-27 06:13:00,SystemResetWarning,0834.8,5.00,000.00,029.9,025.4,000.0,038.2,030.7,32.3,0000.0,0007.67,0003.89,0003.21
2023-07-27 06:14:00,SystemResetWarning,0834.8,5.00,000.00,029.8,025.7,000.0,038.2,030.6,31.3,0000.0,0007.55,0003.88,0003.21
2023-07-27 06:15:00,SystemResetWarning,0835.1,5.01,000.00,029.7,026.1,000.0,038.2,030.7,30.3,0000.0,0007.66,0003.90,0003.21
2023-07-27 06:16:00,SystemResetWarning,0835.2,4.99,000.00,029.7,026.4,000.0,038.2,030.7,29.8,0000.0,0007.60,0003.88,0003.21
2023-07-27 06:17:00,SystemResetWarning,0835.3,5.00,000.00,029.7,026.8,000.0,038.2,030.8,29.5,0000.0,0007.34,0003.86,0003.21
2023-07-27 06:18:00,SystemResetWarning,0835.4,5.00,000.00,029.7,027.1,000.0,038.2,030.9,29.0,0000.0,0007.32,0003.89,0003.21
2023-07-27 06:19:00,SystemResetWarning,0835.1,5.00,000.00,029.7,027.3,000.0,038.2,030.9,29.0,0000.0,0007.32,0003.90,0003.20
2023-07-27 06:20:00,SystemResetWarning,0835.1,4.99,000.00,029.7,027.6,000.0,038.2,031.0,29.1,0000.0,0007.66,0003.93,0003.21
2023-07-27 06:21:00,SystemResetWarning,0835.0,4.99,000.00,029.7,027.7,000.0,038.2,031.0,29.0,0000.0,0007.90,0003.92,0003.18
2023-07-27 06:22:00,SystemResetWarning,0835.1,5.01,000.00,029.7,027.9,000.0,038.2,031.1,28.9,0000.0,0007.74,0003.85,0003.16
2023-07-27 06:23:00,SystemResetWarning,0834.9,5.01,000.00,029.7,028.0,000.0,038.2,031.1,29.0,0000.0,0007.60,0003.81,0003.16
2023-07-27 06:24:00,SystemResetWarning,0834.9,5.00,000.00,029.8,028.1,000.0,038.2,031.1,29.0,0000.0,0007.68,0003.84,0003.17
2023-07-27 06:25:00,SystemResetWarning,0835.0,4.99,000.00,029.8,028.2,000.0,038.2,031.2,30.4,0000.0,0007.78,0003.90,0003.18
2023-07-27 06:26:00,SystemResetWarning,0835.0,5.00,000.00,029.8,028.3,000.0,038.2,031.2,30.9,0000.0,0007.71,0003.87,0003.18
2023-07-27 06:27:00,SystemResetWarning,0835.0,4.99,000.00,029.8,028.3,000.0,038.2,031.2,30.9,0000.0,0007.78,0003.87,0003.19
2023-07-27 06:28:00,SystemResetWarning,0835.0,5.00,000.00,029.8,026.9,000.0,038.1,031.1,31.1,0000.0,0007.93,0003.89,0003.20
2023-07-27 06:29:00,SystemResetWarning,0835.0,5.00,000.00,029.8,025.6,000.0,038.0,030.9,30.8,0000.0,0007.89,0003.88,0003.20
2023-07-27 06:30:00,SystemResetWarning,0834.9,5.01,000.00,029.7,025.3,000.0,037.9,030.6,31.1,0000.0,0008.02,0003.90,0003.21
2023-07-27 06:31:00,SystemResetWarning,0835.3,5.01,000.00,029.5,025.6,000.0,038.0,030.5,31.2,0000.0,0007.77,0003.87,0003.21
2023-07-27 06:32:00,SystemResetWarning,0835.3,4.99,000.00,029.5,026.0,000.0,038.0,030.6,30.9,0000.0,0007.45,0003.85,0003.21
2023-07-27 06:33:00,SystemResetWarning,0835.3,5.00,000.00,029.4,026.4,000.0,038.0,030.7,30.5,0000.0,0007.48,0003.86,0003.22
2023-07-27 06:34:00,SystemResetWarning,0834.9,5.00,000.00,029.4,026.7,000.0,038.0,030.7,30.4,0000.0,0007.51,0003.85,0003.21
2023-07-27 06:35:00,SystemResetWarning,0834.9,5.00,000.00,029.5,027.1,000.0,038.0,030.8,31.4,0000.0,0007.49,0003.81,0003.18
2023-07-27 06:36:00,SystemResetWarning,0834.9,5.00,000.00,029.5,027.3,000.0,038.0,030.9,33.0,0000.0,0007.41,0003.75,0003.16
2023-07-27 06:37:00,SystemResetWarning,0834.9,5.00,000.00,029.5,027.5,000.0,038.0,030.9,33.9,0000.0,0007.30,0003.72,0003.15
2023-07-27 06:38:00,SystemResetWarning,0834.9,5.00,000.00,029.5,027.7,000.0,038.0,031.0,33.2,0000.0,0007.33,0003.73,0003.12
2023-07-27 06:39:00,SystemResetWarning,0834.9,5.00,000.00,029.5,027.9,000.0,038.0,031.0,32.8,0000.0,0007.20,0003.73,0003.10
2023-07-27 06:40:00,SystemResetWarning,0834.9,5.00,000.00,029.5,028.0,000.0,038.0,031.1,32.0,0000.0,0007.26,0003.73,0003.09
2023-07-27 06:41:00,SystemResetWarning,0834.9,5.00,000.00,029.6,028.1,000.0,038.0,031.1,31.3,0000.0,0007.09,0003.72,0003.08
2023-07-27 06:42:00,SystemResetWarning,0834.9,5.01,000.00,029.6,028.2,000.0,038.0,031.1,30.7,0000.0,0006.67,0003.69,0003.05
2023-07-27 06:43:00,SystemResetWarning,0835.3,5.00,000.00,029.6,028.3,000.0,038.0,031.2,30.9,0000.0,0006.52,0003.66,0003.04
2023-07-27 06:44:00,SystemResetWarning,0835.4,5.00,000.00,029.7,028.3,000.0,038.0,031.2,30.9,0000.0,0006.36,0003.64,0003.04
2023-07-27 06:45:00,SystemResetWarning,0835.2,4.98,000.00,029.7,027.1,000.0,037.9,031.1,30.9,0000.0,0006.26,0003.63,0003.04
2023-07-27 06:46:00,SystemResetWarning,0835.0,5.00,000.00,029.6,025.6,000.0,037.8,030.9,31.1,0000.0,0006.12,0003.63,0003.07
2023-07-27 06:47:00,SystemResetWarning,0834.8,5.01,000.00,029.5,025.3,000.0,037.8,030.6,32.3,0000.0,0006.63,0003.65,0003.08
2023-07-27 06:48:00,SystemResetWarning,0834.7,5.00,000.00,029.4,025.6,000.0,037.8,030.5,33.0,0000.0,0006.92,0003.65,0003.08
2023-07-27 06:49:00,SystemResetWarning,0834.7,4.99,000.00,029.3,026.0,000.0,037.8,030.5,34.1,0000.0,0006.99,0003.62,0003.09
2023-07-27 06:50:00,SystemResetWarning,0834.7,5.00,000.00,029.3,026.4,000.0,037.8,030.6,34.4,0000.0,0007.01,0003.64,0003.09
2023-07-27 06:51:00,SystemResetWarning,0834.7,5.01,000.00,029.3,026.8,000.0,037.8,030.7,33.5,0000.0,0007.08,0003.63,0003.08
2023-07-27 06:52:00,SystemResetWarning,0834.7,5.01,000.00,029.3,027.1,000.0,037.8,030.8,33.3,0000.0,0007.22,0003.65,0003.08
2023-07-27 06:53:00,SystemResetWarning,0835.1,4.99,000.00,029.3,027.3,000.0,037.8,030.9,33.0,0000.0,0007.35,0003.68,0003.09
2023-07-27 06:54:00,SystemResetWarning,0834.9,5.00,000.00,029.4,027.6,000.0,037.9,030.9,32.6,0000.0,0007.47,0003.71,0003.10
2023-07-27 06:55:00,SystemResetWarning,0834.8,5.00,000.00,029.4,027.7,000.0,037.9,031.0,32.6,0000.0,0008.53,0003.69,0003.10
2023-07-27 06:56:00,SystemResetWarning,0834.6,5.00,000.00,029.4,027.9,000.0,037.9,031.0,32.6,0000.0,0008.82,0003.71,0003.10
2023-07-27 06:57:00,SystemResetWarning,0834.7,5.00,000.00,029.5,028.0,000.0,037.9,031.0,32.2,0000.0,0008.85,0003.72,0003.10
2023-07-27 06:58:00,SystemResetWarning,0834.8,5.00,000.00,029.5,028.2,000.0,037.9,031.1,32.1,0000.0,0008.64,0003.72,0003.08
2023-07-27 06:59:00,SystemResetWarning,0834.6,5.00,000.00,029.5,028.2,000.0,037.9,031.1,32.1,0000.0,0008.42,0003.71,0003.06
